Find Starlink 2587

NORAD ID: 48399 Int'l Des: 2021-038 Owner: SPXS Country: US Constellation: starlink operational
LEOCIRCULAR

Current View

Loading 3D Globe...

About Starlink 2587

Description loading...

Upcoming Passes

Passes for default location (London). Set your location on the main map for personalized predictions.

Altitude History

Loading altitude history...

Two-Line Element Set

1 48399U 21038AY 26151.46176647 -.00001322 00000-0 -30873-4 0 9998
2 48399 53.1582 307.5687 0000698 335.2532 24.8436 15.31694019281334
Epoch: May 31, 2026 • Age: 13 hours

Current Status

Altitude 470.5 km
Velocity 7.63 km/s
Sub-Earth Point 9.94°N, 68.18°E
Launch Date May 4, 2021
Age 5 years
Type internet

Technical Details

Classification Payload
Mass 260.00 kg
Dry Mass 248.00 kg
Total Mass 260.00 kg
Length 0.20 m
Diameter 2.80 m
Span 9.00 m
Shape Box + pan
Manufacturer SPXS
Bus Type Starlink
Phase Status In Orbit
Owner/State SPXS/US

Most Searched